Elwood, KS

1:59 PM CST on February 25, 2017 (GMT -0600)
Rosecrans Memorial

Weather History for KSTJ - December, 2011

Change the Weather History Date:

Saturday, December 3, 2011

  Actual Average Record
Temperature  
Mean Temperature 42 °F 34 °F  
Max Temperature 49 °F 44 °F 72 °F (2012)
Min Temperature 34 °F 23 °F 1 °F (1919)
Degree Days  
Heating Degree Days 23 31  
Month to date heating degree days 87 93  
Since 1 July heating degree days 1049 1204  
Cooling Degree Days 0 0  
Month to date cooling degree days 0 0  
Year to date cooling degree days 494 1221  
Moisture  
Dew Point 44 °F    
Average Humidity 96    
Maximum Humidity 100    
Minimum Humidity 92    
Precipitation  
Precipitation 1.16 in 0.04 in 2.01 in (1944)
Month to date precipitation 1.20 0.13  
Year to date precipitation 19.01 34.21  
Sea Level Pressure  
Sea Level Pressure 29.99 in    
Wind  
Wind Speed 7 mph (SSE)    
Max Wind Speed 21 mph    
Max Gust Speed 31 mph    
Visibility 4 miles    
Events Rain    
T = Trace of Precipitation, MM = Missing Value Source: NWS Daily Summary

Daily Weather History Graph

Daily Weather History Graph

Search for Another Location

Airport or City:

Trip Planner

Search our weather history database for the weather conditions in past years. The results will help you decide how hot, cold, wet, or windy it might be!

Date:

Astronomy

Dec. 03, 2011 Rise Set
Actual Time 7:23 AM CST 4:55 PM CST
Civil Twilight 6:53 AM CST 5:25 PM CST
Nautical Twilight 6:19 AM CST 5:58 PM CST
Astronomical Twilight 5:47 AM CST 6:31 PM CST
Moon 12:59 PM CST (12/3) 12:53 AM CST (12/3)
Length of Visible Light 10h 31m
Length of Day
9h 31m
Waxing Gibbous, 63% of the Moon is Illuminated
Dec 3
Waxing Gibbous
Dec 10
Full
Dec 17
Last Quarter
Dec 24
New
Jan 1
First Quarter

Hourly Weather History & Observations

Time (CST) Temp. Windchill Dew Point Humidity Pressure Visibility Wind Dir Wind Speed Gust Speed Precip Events Conditions
12:53 AM 44.1 °F 39.0 °F 42.1 °F 93% 30.13 in 6.0 mi South 9.2 mph - 0.02 in Rain Light Rain
1:53 AM 44.1 °F 39.0 °F 43.0 °F 96% 30.12 in 4.0 mi South 9.2 mph - 0.00 in Rain Light Rain
2:10 AM 44.6 °F 39.2 °F 42.8 °F 93% 30.10 in 3.0 mi South 10.4 mph - 0.02 in Rain Rain
2:53 AM 44.1 °F 42.5 °F 43.0 °F 96% 30.12 in 4.0 mi SSW 3.5 mph - 0.05 in Rain Light Rain
3:00 AM 44.6 °F - 42.8 °F 93% 30.11 in 4.0 mi Calm Calm - 0.00 in Rain Light Rain
3:21 AM 44.6 °F - 42.8 °F 93% 30.11 in 4.0 mi Calm Calm - 0.00 in   Overcast
3:53 AM 44.1 °F 42.5 °F 43.0 °F 96% 30.13 in 4.0 mi West 3.5 mph - 0.01 in Rain Light Rain
4:01 AM 44.6 °F - 42.8 °F 93% 30.12 in 1.8 mi Calm Calm - 0.04 in Rain Heavy Rain
4:14 AM 44.6 °F - 42.8 °F 93% 30.12 in 2.5 mi Calm Calm - 0.08 in Rain Light Rain
4:16 AM 44.6 °F - 42.8 °F 93% 30.12 in 3.0 mi Calm Calm - 0.08 in Rain Light Rain
4:26 AM 44.6 °F - 42.8 °F 93% 30.12 in 2.0 mi Calm Calm - 0.09 in Rain Rain
4:31 AM 44.6 °F - 42.8 °F 93% 30.11 in 1.8 mi Calm Calm - 0.10 in Rain Rain
4:53 AM 44.1 °F - 43.0 °F 96% 30.13 in 1.5 mi Calm Calm - 0.11 in Rain Light Rain
5:01 AM 42.8 °F - 42.8 °F 100% 30.11 in 1.2 mi Calm Calm - 0.00 in Rain Light Rain
5:11 AM 42.8 °F - 42.8 °F 100% 30.11 in 1.2 mi Calm Calm - 0.00 in   Overcast
5:53 AM 43.0 °F 41.3 °F 42.1 °F 97% 30.14 in 1.2 mi NNW 3.5 mph - 0.03 in Rain Light Rain
6:19 AM 42.8 °F 41.1 °F 42.8 °F 100% 30.12 in 1.0 mi NE 3.5 mph - 0.07 in Rain Rain
6:53 AM 43.0 °F 40.3 °F 43.0 °F 100% 30.13 in 1.5 mi East 4.6 mph - 0.10 in Rain Light Rain
7:07 AM 44.6 °F 43.1 °F 42.8 °F 93% 30.11 in 1.8 mi East 3.5 mph - 0.02 in Rain Rain
7:18 AM 44.6 °F 43.1 °F 44.6 °F 100% 30.11 in 2.0 mi East 3.5 mph - 0.03 in Rain Light Rain
7:26 AM 44.6 °F 43.1 °F 44.6 °F 100% 30.11 in 1.8 mi ENE 3.5 mph - 0.05 in Rain Rain
7:50 AM 44.6 °F 43.1 °F 44.6 °F 100% 30.10 in 2.0 mi East 3.5 mph - 0.09 in Rain Rain
7:53 AM 44.1 °F 42.5 °F 44.1 °F 100% 30.11 in 2.0 mi East 3.5 mph - 0.10 in Rain Rain
8:16 AM 44.6 °F - 42.8 °F 93% 30.09 in 1.8 mi Calm Calm - 0.05 in Rain Rain
8:53 AM 44.1 °F 40.8 °F 44.1 °F 100% 30.08 in 2.0 mi ESE 5.8 mph - 0.12 in Rain Light Rain
9:18 AM 44.6 °F 41.4 °F 44.6 °F 100% 30.06 in 2.5 mi ESE 5.8 mph - 0.00 in Rain Light Rain
9:43 AM 46.4 °F 42.9 °F 44.6 °F 93% 30.05 in 2.5 mi East 6.9 mph - 0.03 in Rain Rain
9:53 AM 46.0 °F 42.5 °F 45.0 °F 96% 30.05 in 3.0 mi ESE 6.9 mph - 0.03 in Rain Light Rain
10:53 AM 46.9 °F - 45.0 °F 93% 29.99 in 7.0 mi ESE 4.6 mph - 0.01 in   Overcast
11:23 AM 46.4 °F 42.9 °F 44.6 °F 93% 29.94 in 9.0 mi SE 6.9 mph - 0.00 in Rain Light Rain
11:53 AM 46.9 °F - 44.1 °F 90% 29.98 in 2.5 mi South 10.4 mph 20.7 mph 0.05 in Rain Heavy Rain
12:02 PM 46.4 °F 41.1 °F 44.6 °F 93% 30.00 in 1.8 mi WSW 11.5 mph - 0.06 in Rain Heavy Rain
12:23 PM 46.4 °F 44.3 °F 44.6 °F 93% 29.97 in 2.0 mi SSE 4.6 mph - N/A Rain Heavy Rain
12:28 PM 46.4 °F 43.5 °F 44.6 °F 93% 29.95 in 3.0 mi SE 5.8 mph - 0.17 in Rain Rain
12:38 PM 46.4 °F 42.9 °F 44.6 °F 93% 29.94 in 4.0 mi SE 6.9 mph - 0.18 in Rain Light Rain
12:53 PM 46.0 °F 43.1 °F 45.0 °F 96% 29.94 in 3.0 mi SSE 5.8 mph - 0.22 in Rain Rain
1:21 PM 46.4 °F 42.4 °F 44.6 °F 93% 29.90 in 4.0 mi SE 8.1 mph - 0.07 in Rain Rain
1:46 PM 46.4 °F 42.9 °F 44.6 °F 93% 29.87 in 2.5 mi SE 6.9 mph - 0.14 in Rain Heavy Rain
1:53 PM 46.0 °F 43.1 °F 45.0 °F 96% 29.87 in 2.5 mi ESE 5.8 mph - 0.17 in Rain Heavy Rain
2:00 PM 46.4 °F 42.4 °F 44.6 °F 93% 29.85 in 3.0 mi SE 8.1 mph - 0.01 in Rain Light Rain
2:27 PM 46.4 °F 41.5 °F 44.6 °F 93% 29.84 in 6.0 mi SSE 10.4 mph - 0.03 in Rain Light Rain
2:53 PM 46.9 °F - 46.0 °F 97% 29.83 in 5.0 mi SSE 11.5 mph - 0.06 in Rain Light Rain
3:42 PM 48.2 °F - 46.4 °F 93% 29.82 in 2.5 mi South 9.2 mph - 0.02 in Rain Light Rain
3:53 PM 48.0 °F - 46.9 °F 96% 29.83 in 2.5 mi South 9.2 mph - 0.02 in Rain Light Rain
4:10 PM 48.2 °F - 46.4 °F 93% 29.83 in 1.5 mi South 6.9 mph - 0.01 in Rain Light Rain
4:34 PM 48.2 °F - 48.2 °F 100% 29.83 in 2.0 mi SSW 6.9 mph - 0.02 in Rain Light Rain
4:53 PM 48.0 °F - 48.0 °F 100% 29.84 in 3.0 mi WSW 5.8 mph - 0.03 in Rain Light Rain
5:25 PM 48.2 °F - 48.2 °F 100% 29.83 in 2.5 mi SW 4.6 mph - 0.00 in Rain Light Rain
5:53 PM 48.0 °F - 48.0 °F 100% 29.85 in 2.0 mi SW 5.8 mph - 0.02 in Rain Light Rain
6:00 PM 48.2 °F - 48.2 °F 100% 29.84 in 2.0 mi SW 5.8 mph - 0.00 in Rain Light Rain
6:07 PM 48.2 °F - 48.2 °F 100% 29.84 in 2.5 mi SW 5.8 mph - 0.00 in Rain Light Rain
6:21 PM 48.2 °F - 48.2 °F 100% 29.84 in 3.0 mi SW 6.9 mph - 0.01 in Rain Light Rain
6:41 PM 48.2 °F - 48.2 °F 100% 29.84 in 6.0 mi SSW 8.1 mph - 0.01 in   Overcast
6:51 PM 48.2 °F - 48.2 °F 100% 29.85 in 7.0 mi SW 6.9 mph - 0.01 in   Overcast
6:53 PM 48.9 °F - 48.9 °F 100% 29.85 in 7.0 mi SW 6.9 mph - 0.01 in   Overcast
7:13 PM 42.8 °F 34.5 °F 42.8 °F 100% 29.86 in 9.0 mi NW 18.4 mph - N/A   Overcast
7:39 PM 39.2 °F 31.2 °F 39.2 °F 100% 29.87 in 10.0 mi NW 13.8 mph - N/A   Overcast
7:53 PM 39.9 °F 31.8 °F 39.9 °F 100% 29.89 in 10.0 mi NW 15.0 mph - N/A   Overcast
8:53 PM 37.9 °F 29.6 °F 37.9 °F 100% 29.92 in 10.0 mi NNW 13.8 mph - N/A   Overcast
9:53 PM 36.0 °F 27.5 °F 36.0 °F 100% 29.95 in 5.0 mi NW 12.7 mph - N/A   Overcast
10:53 PM 35.1 °F 25.5 °F 35.1 °F 100% 29.99 in 5.0 mi NNW 15.0 mph - N/A   Overcast
11:53 PM 34.0 °F 24.6 °F 34.0 °F 100% 30.01 in 7.0 mi NNW 13.8 mph - N/A   Overcast